| time (UTC) | temp C | wind direction | speed KPH | gust KPH | rain 1hr cm | rain 24hr cm | rain mn cm | humidity % | barometer mb |
| 20260502151536 | 13 | 109 | 9.7 | 11.3 | 0.00 | 0.03 | 0.03 | 73 | 1010.3 |
| 20260502150531 | 12 | 108 | 6.4 | 6.4 | 0.00 | 0.03 | 0.03 | 75 | 1010.4 |
| 20260502130514 | 11 | 92 | 4.8 | 4.8 | 0.00 | 0.03 | 0.03 | 82 | 1010.3 |
| 20260502123508 | 10 | 63 | 6.4 | 6.4 | 0.00 | 0.03 | 0.03 | 91 | 1010.8 |
| 20260502122507 | 10 | 116 | 8.0 | 8.0 | 0.00 | 0.03 | 0.03 | 93 | 1010.5 |
| 20260502121502 | 10 | 102 | 4.8 | 4.8 | 0.00 | 0.03 | 0.03 | 93 | 1010.9 |
| 20260502120501 | 9 | 81 | 4.8 | 6.4 | 0.00 | 0.03 | 0.03 | 94 | 1011.0 |
| 20260502115501 | 9 | 107 | 4.8 | 4.8 | 0.00 | 0.03 | 0.03 | 95 | 1011.0 |
| 20260502114500 | 9 | 99 | 3.2 | 8.0 | 0.05 | 0.03 | 0.03 | 95 | 1011.1 |
| 20260502113500 | 8 | 89 | 3.2 | 9.7 | 0.00 | 0.03 | 0.03 | 94 | 1011.1 |
| 20260502112456 | 8 | 118 | 9.7 | 9.7 | 0.00 | 0.03 | 0.03 | 94 | 1011.1 |
| 20260502111456 | 8 | 117 | 6.4 | 8.0 | 0.00 | 0.03 | 0.03 | 95 | 1010.8 |
| 20260502110451 | 8 | 81 | 3.2 | 4.8 | 0.00 | 0.03 | 0.03 | 95 | 1011.2 |
| 20260502105446 | 8 | 82 | 4.8 | 4.8 | 0.00 | 0.03 | 0.03 | 94 | 1010.9 |
| 20260502104446 | 8 | 38 | 6.4 | 6.4 | 0.00 | 0.03 | 0.03 | 94 | 1010.8 |
| 20260502103441 | 8 | 110 | 3.2 | 3.2 | 0.00 | 0.03 | 0.03 | 94 | 1011.4 |
| 20260502102441 | 8 | 126 | 3.2 | 4.8 | 0.00 | 0.03 | 0.03 | 95 | 1010.6 |
| 20260502101436 | 8 | 92 | 3.2 | 4.8 | 0.00 | 0.03 | 0.03 | 95 | 1010.3 |
| 20260502100433 | 8 | 143 | 3.2 | 4.8 | 0.00 | 0.03 | 0.03 | 94 | 1010.4 |
| 20260502091419 | 9 | 105 | 1.6 | 4.8 | 0.00 | 0.00 | 0.00 | 91 | 1010.2 |
| 20260502090419 | 9 | 120 | 3.2 | 3.2 | 0.05 | 0.00 | 0.00 | 90 | 1010.1 |
| 20260502071348 | 10 | 139 | 4.8 | 6.4 | 0.00 | 0.00 | 0.00 | 83 | 1010.4 |
| 20260502070344 | 10 | 82 | 3.2 | 4.8 | 0.00 | 0.00 | 0.00 | 82 | 1009.7 |
| 20260502065340 | 10 | 146 | 1.6 | 6.4 | 0.00 | 0.00 | 0.00 | 81 | 1010.1 |
| 20260502064336 | 10 | 161 | 3.2 | 9.7 | 0.00 | 0.00 | 0.00 | 79 | 1010.3 |
| 20260502063336 | 10 | 178 | 3.2 | 6.4 | 0.00 | 0.00 | 0.00 | 78 | 1010.3 |
| 20260502062337 | 10 | 149 | 4.8 | 6.4 | 0.00 | 0.00 | 0.00 | 79 | 1010.4 |
| 20260502061333 | 10 | 109 | 6.4 | 6.4 | 0.00 | 0.00 | 0.00 | 77 | 1010.1 |
| 20260502060329 | 10 | 98 | 4.8 | 4.8 | 0.00 | 0.00 | 0.00 | 77 | 1010.6 |
| 20260502055325 | 10 | 180 | 3.2 | 6.4 | 0.00 | 0.00 | 0.00 | 76 | 1010.6 |
| 20260502054322 | 10 | 134 | 4.8 | 4.8 | 0.00 | 0.00 | 0.00 | 76 | 1010.3 |
| 20260502053322 | 10 | 175 | 4.8 | 8.0 | 0.00 | 0.00 | 0.00 | 76 | 1010.5 |
| 20260502052318 | 10 | 130 | 3.2 | 9.7 | 0.00 | 0.00 | 0.00 | 75 | 1010.4 |
| 20260502051314 | 10 | 140 | 3.2 | 6.4 | 0.00 | 0.00 | 0.00 | 75 | 1010.5 |
| 20260502050312 | 10 | 129 | 3.2 | 4.8 | 0.00 | 0.00 | 0.00 | 74 | 1010.3 |
| 20260502045311 | 11 | 129 | 4.8 | 8.0 | 0.00 | 0.00 | 0.00 | 73 | 1010.5 |
| 20260502044310 | 11 | 160 | 3.2 | 6.4 | 0.00 | 0.00 | 0.00 | 72 | 1010.7 |
| 20260502043305 | 11 | 127 | 4.8 | 6.4 | 0.00 | 0.00 | 0.00 | 72 | 1010.5 |
| 20260502042305 | 11 | 125 | 3.2 | 6.4 | 0.00 | 0.00 | 0.00 | 71 | 1010.5 |
| 20260502041257 | 11 | 126 | 8.0 | 9.7 | 0.00 | 0.00 | 0.00 | 71 | 1010.4 |
| 20260502040256 | 11 | 115 | 3.2 | 6.4 | 0.00 | 0.00 | 0.00 | 71 | 1010.6 |
| 20260502035255 | 11 | 108 | 3.2 | 6.4 | 0.00 | 0.00 | 0.00 | 70 | 1010.5 |
| 20260502034251 | 11 | 120 | 4.8 | 6.4 | 0.00 | 0.00 | 0.00 | 70 | 1010.4 |
| 20260502033252 | 11 | 109 | 6.4 | 8.0 | 0.00 | 0.00 | 0.00 | 70 | 1010.6 |
| 20260502032250 | 11 | 103 | 4.8 | 4.8 | 0.00 | 0.00 | 0.00 | 69 | 1010.6 |
| 20260502031246 | 11 | 110 | 3.2 | 4.8 | 0.00 | 0.00 | 0.00 | 68 | 1010.7 |
| 20260502030242 | 11 | 97 | 3.2 | 4.8 | 0.00 | 0.00 | 0.00 | 69 | 1010.7 |
| 20260502025237 | 11 | 113 | 4.8 | 4.8 | 0.00 | 0.00 | 0.00 | 68 | 1010.7 |
| 20260502024232 | 11 | 101 | 4.8 | 4.8 | 0.00 | 0.00 | 0.00 | 68 | 1010.6 |
| 20260502023227 | 11 | 119 | 4.8 | 4.8 | 0.00 | 0.00 | 0.00 | 67 | 1010.6 |
| 20260502022227 | 12 | 108 | 3.2 | 8.0 | 0.00 | 0.00 | 0.00 | 66 | 1010.8 |
| 20260502021227 | 12 | 115 | 3.2 | 4.8 | 0.00 | 0.00 | 0.00 | 65 | 1010.6 |
| 20260502020227 | 12 | 105 | 1.6 | 4.8 | 0.00 | 0.00 | 0.00 | 65 | 1010.5 |
| 20260502015227 | 12 | 126 | 3.2 | 4.8 | 0.00 | 0.00 | 0.00 | 64 | 1010.6 |
| 20260502014222 | 12 | 149 | 3.2 | 4.8 | 0.00 | 0.00 | 0.00 | 64 | 1010.6 |
| 20260502013219 | 12 | 188 | 6.4 | 9.7 | 0.00 | 0.00 | 0.00 | 63 | 1010.6 |
| 20260502012214 | 12 | 176 | 4.8 | 11.3 | 0.00 | 0.00 | 0.00 | 63 | 1010.3 |
| 20260502011213 | 12 | 131 | 4.8 | 8.0 | 0.00 | 0.00 | 0.00 | 63 | 1010.3 |
| 20260502010212 | 12 | 201 | 4.8 | 6.4 | 0.00 | 0.00 | 0.00 | 62 | 1010.5 |
| 20260502005208 | 12 | 124 | 6.4 | 6.4 | 0.00 | 0.00 | 0.00 | 60 | 1010.1 |
| 20260502004206 | 13 | 132 | 3.2 | 8.0 | 0.00 | 0.00 | 0.00 | 57 | 1010.0 |
| 20260502003201 | 13 | 122 | 4.8 | 8.0 | 0.00 | 0.00 | 0.00 | 54 | 1009.9 |
| 20260502002200 | 13 | 176 | 4.8 | 9.7 | 0.00 | 0.00 | 0.00 | 48 | 1009.6 |
| 20260502001201 | 14 | 127 | 6.4 | 9.7 | 0.00 | 0.00 | 0.00 | 45 | 1009.4 |
| 20260502000156 | 14 | 122 | 4.8 | 8.0 | 0.00 | 0.00 | 0.00 | 44 | 1009.4 |
| 20260501235154 | 15 | 124 | 3.2 | 4.8 | 0.00 | 0.00 | 0.00 | 44 | 1009.0 |
| 20260501234153 | 15 | 160 | 4.8 | 6.4 | 0.00 | 0.00 | 0.00 | 44 | 1009.1 |
| 20260501233153 | 15 | 146 | 3.2 | 12.9 | 0.00 | 0.00 | 0.00 | 42 | 1008.7 |
| 20260501232153 | 15 | 190 | 3.2 | 8.0 | 0.00 | 0.00 | 0.00 | 41 | 1008.7 |
| 20260501231148 | 16 | 148 | 3.2 | 4.8 | 0.00 | 0.00 | 0.00 | 38 | 1008.7 |
| 20260501230144 | 16 | 192 | 3.2 | 6.4 | 0.00 | 0.00 | 0.00 | 36 | 1008.6 |
| 20260501225144 | 16 | 147 | 3.2 | 4.8 | 0.00 | 0.00 | 0.00 | 36 | 1008.7 |
| 20260501224144 | 17 | 152 | 1.6 | 4.8 | 0.00 | 0.00 | 0.00 | 35 | 1008.3 |
| 20260501223142 | 17 | 145 | 4.8 | 6.4 | 0.00 | 0.00 | 0.00 | 34 | 1008.4 |
| 20260501222141 | 17 | 207 | 6.4 | 6.4 | 0.00 | 0.00 | 0.00 | 35 | 1008.1 |
| 20260501221141 | 17 | 85 | 3.2 | 9.7 | 0.00 | 0.00 | 0.00 | 34 | 1008.4 |
| 20260501220141 | 17 | 16 | 0.0 | 9.7 | 0.00 | 0.00 | 0.00 | 34 | 1008.4 |
| 20260501215139 | 17 | 36 | 3.2 | 6.4 | 0.00 | 0.00 | 0.00 | 34 | 1008.4 |
| 20260501214136 | 19 | 21 | 3.2 | 3.2 | 0.00 | 0.00 | 0.00 | 32 | 1008.4 |
| 20260501213135 | 18 | 185 | 1.6 | 17.7 | 0.00 | 0.00 | 0.00 | 33 | 1008.4 |
| 20260501212134 | 18 | 210 | 6.4 | 8.0 | 0.00 | 0.00 | 0.00 | 33 | 1008.5 |
| 20260501211129 | 18 | 181 | 3.2 | 6.4 | 0.00 | 0.00 | 0.00 | 32 | 1008.4 |
| 20260501210128 | 19 | 225 | 6.4 | 14.5 | 0.00 | 0.00 | 0.00 | 32 | 1008.4 |
| 20260501205128 | 17 | 54 | 3.2 | 8.0 | 0.00 | 0.00 | 0.00 | 34 | 1008.3 |
| 20260501204126 | 17 | 28 | 6.4 | 11.3 | 0.00 | 0.00 | 0.00 | 34 | 1008.4 |
| 20260501203126 | 17 | 199 | 6.4 | 14.5 | 0.00 | 0.00 | 0.00 | 34 | 1008.4 |
| 20260501202126 | 18 | 42 | 4.8 | 8.0 | 0.00 | 0.00 | 0.00 | 33 | 1008.5 |
| 20260501201125 | 18 | 175 | 4.8 | 17.7 | 0.00 | 0.00 | 0.00 | 35 | 1008.3 |
| 20260501200125 | 18 | 214 | 12.9 | 14.5 | 0.00 | 0.00 | 0.00 | 34 | 1008.3 |
| 20260501195124 | 17 | 117 | 0.0 | 9.7 | 0.00 | 0.00 | 0.00 | 35 | 1008.4 |
| 20260501194121 | 18 | 99 | 3.2 | 9.7 | 0.00 | 0.00 | 0.00 | 35 | 1008.3 |
| 20260501193117 | 17 | 213 | 4.8 | 6.4 | 0.00 | 0.00 | 0.00 | 35 | 1008.4 |
| 20260501192117 | 17 | 11 | 3.2 | 8.0 | 0.00 | 0.00 | 0.00 | 35 | 1008.4 |
| 20260501191117 | 17 | 38 | 4.8 | 8.0 | 0.00 | 0.00 | 0.00 | 35 | 1008.7 |
| 20260501190114 | 17 | 143 | 3.2 | 11.3 | 0.00 | 0.00 | 0.00 | 36 | 1009.0 |
| 20260501185112 | 17 | 108 | 3.2 | 6.4 | 0.00 | 0.00 | 0.00 | 33 | 1009.0 |
| 20260501184109 | 17 | 47 | 4.8 | 12.9 | 0.00 | 0.00 | 0.00 | 34 | 1009.1 |
| 20260501183108 | 16 | 291 | 3.2 | 11.3 | 0.00 | 0.00 | 0.00 | 36 | 1009.0 |
| 20260501182108 | 16 | 34 | 11.3 | 16.1 | 0.00 | 0.00 | 0.00 | 37 | 1008.9 |
| 20260501181108 | 17 | 180 | 6.4 | 12.9 | 0.00 | 0.00 | 0.00 | 33 | 1009.0 |
| 20260501180108 | 17 | 18 | 8.0 | 9.7 | 0.00 | 0.00 | 0.00 | 33 | 1009.3 |
| 20260501175107 | 16 | 15 | 11.3 | 12.9 | 0.00 | 0.00 | 0.00 | 35 | 1009.2 |
| 20260501174107 | 15 | 0 | 6.4 | 11.3 | 0.00 | 0.00 | 0.00 | 36 | 1009.3 |
| 20260501173107 | 16 | 87 | 6.4 | 6.4 | 0.00 | 0.00 | 0.00 | 34 | 1009.3 |
| 20260501172104 | 15 | 353 | 6.4 | 11.3 | 0.00 | 0.00 | 0.00 | 37 | 1009.3 |
| 20260501171103 | 16 | 1 | 1.6 | 9.7 | 0.00 | 0.00 | 0.00 | 35 | 1009.5 |
| 20260501165103 | 16 | 354 | 6.4 | 12.9 | 0.00 | 0.00 | 0.00 | 36 | 1009.7 |
| 20260501164058 | 15 | 79 | 3.2 | 8.0 | 0.00 | 0.00 | 0.00 | 39 | 1009.6 |
| 20260501163057 | 15 | 36 | 6.4 | 9.7 | 0.00 | 0.00 | 0.00 | 40 | 1009.9 |
| 20260501162056 | 15 | 28 | 8.0 | 12.9 | 0.00 | 0.00 | 0.00 | 41 | 1009.9 |
| 20260501161056 | 15 | 225 | 3.2 | 17.7 | 0.00 | 0.00 | 0.00 | 41 | 1009.8 |
| 20260501160056 | 15 | 356 | 4.8 | 14.5 | 0.00 | 0.00 | 0.00 | 44 | 1009.9 |